www.pogodaiklimat.ru

Погода и климат >> Архив погоды >> Таиланд >> Пхетчабун


ПОГОДА в Пхетчабуне

  • Прогноз погоды в Пхетчабуне
  • Монитор погоды в Пхетчабуне

АРХИВ ПОГОДЫ в Пхетчабуне

Время (UTC), дата Ветер
(напр.,м/с)
 
Видим.   Явления Облачность Т
(С)
Тd
(С)
f
(%)
Тe
(С)
Тes
(С)
Комфортность P
(гПа)
Po
(гПа)
Тmin
(С)
Tmax
(С)
R
(мм)
R24
(мм)
S
(см)
09 12.07 штиль 0 8000 м слаб. дождь 10/5 600 м
[Cu Sc Ac As Cs]
+30.0 +24.3 72 +42 +45 опасность
перегрева
1004.8 991.8 9
12 12.07 штиль 0 12 км {дождь} 5/3 600 м
[Sc Ac trans Cs]
+30.5 +25.6 75 +45 +45 опасность
перегрева
1004.5 991.4 +37.3 2
15 12.07 штиль 0 10 км 3/1 600 м
[Cu hum Cs]
+28.0 +25.1 84 +40 +40 очень
душно
1007.0 993.8
18 12.07 штиль 0 10 км 5/1 600 м
[Cu hum Ac trans Cs]
+28.0 +25.1 84 +40 +40 очень
душно
1006.6 993.4
21 12.07 штиль 0 10 км 3/0
[Cs]
+26.7 +24.5 88 +38 +38 очень
душно
1006.3 993.1
00 13.07 штиль 0 10 км 10/5 600 м
[Sc Ac lent Cs]
+25.4 +23.9 91 +35 +35 очень
душно
1008.1 994.9 +24.7
03 13.07 штиль 0 12 км 9/4 600 м
[Sc Ac lent Cs]
+30.6 +25.5 74 +45 +52 опасность
перегрева
1008.2 995.2
06 13.07 штиль 0 12 км 9/5 600 м
[Cu Sc Ac lent Cs]
+33.8 +25.1 61 +48 +57 опасность
перегрева
1005.6 992.7
09 13.07 штиль 0 12 км 9/5 600 м
[Cu Sc Ac lent Cs]
+35.1 +23.7 52 +46 +50 опасность
перегрева
1002.8 990.0
12 13.07 штиль 0 12 км 10/5 600 м
[Sc Ac lent Cs]
+32.5 +23.9 61 +44 +44 опасность
перегрева
1003.3 990.4 +35.6
15 13.07 штиль 0 10 км 10/5 600 м
[Cu Sc Ac lent Cs]
+29.6 +24.7 75 +42 +42 опасность
перегрева
1005.5 992.4
18 13.07 штиль 0 10 км 10/5 600 м
[Cu Sc Ac lent Cs]
+29.0 +23.9 74 +40 +40 очень
душно
1005.6 992.5
21 13.07 штиль 0 10 км 10/5 600 м
[Cu Sc Ac lent Cs]
+26.7 +24.2 86 +37 +37 очень
душно
1005.4 992.2
00 14.07 штиль 0 10 км 10/6 600 м
[Cu Sc Ac lent Cs]
+26.0 +23.7 87 +35 +36 очень
душно
1005.5 992.3 +25.4
03 14.07 штиль 0 12 км 9/4 600 м
[Sc Ac lent Cs]
+30.3 +24.1 69 +42 +49 опасность
перегрева
1005.8 992.7
06 14.07 Ю 2 12 км 10/6 600 м
[Cu Sc Ac lent Cs]
+34.0 +24.8 59 +47 +52 опасность
перегрева
1004.1 991.3
09 14.07 Ю 2 12 км 9/5 600 м
[Cu Sc Ac lent Cs]
+33.6 +23.9 57 +45 +48 опасность
перегрева
1001.9 989.1
12 14.07 штиль 0 12 км 10/6 600 м
[Cu Sc Ac lent Cs]
+31.5 +23.6 63 +43 +43 опасность
перегрева
1002.2 989.3 +35.5
15 14.07 штиль 0 10 км 9/4 600 м
[Sc Ac lent Cs]
+29.5 +24.8 76 +42 +42 опасность
перегрева
1004.1 991.0
18 14.07 штиль 0 10 км 9/4 600 м
[Sc Ac lent Cs]
+28.1 +25.1 84 +41 +41 опасность
перегрева
1004.5 991.4
21 14.07 штиль 0 10 км 9/4 600 м
[Sc Ac lent Cs]
+26.7 +25.0 90 +38 +38 очень
душно
1003.4 990.3
00 15.07 штиль 0 10 км 9/3 600 м
[Sc Ac trans Cs]
+26.2 +24.5 90 +37 +38 очень
душно
1003.5 990.4 +25.5
03 15.07 штиль 0 12 км 9/3 600 м
[Cu Sc Ac trans Cs]
+29.2 +24.0 74 +41 +49 опасность
перегрева
1004.1 991.0
06 15.07 Ю 2 12 км 8/3 600 м
[Cu Sc Ac trans Cs]
+32.9 +23.9 59 +44 +54 опасность
перегрева
1003.0 990.1
09 15.07 ЮВ 3 12 км 8/3 600 м
[Cb calv Ac trans Cs]
+34.0 +24.2 57 +46 +49 опасность
перегрева
1001.4 988.6
12 15.07 штиль 0 12 км 5/1 600 м
[Cu Sc Ac trans Cs]
+31.3 +24.0 65 +43 +43 опасность
перегрева
1001.4 988.5 +34.6
15 15.07 штиль 0 10 км 4/1 600 м
[Cu hum Cs]
+29.0 +24.6 77 +41 +41 опасность
перегрева
1004.1 991.0
18 15.07 штиль 0 10 км 4/1 600 м
[Cu hum Cs]
+27.4 +23.9 81 +38 +38 очень
душно
1003.5 990.4
21 15.07 штиль 0 10 км 3/0
[Cs]
+25.6 +23.4 88 +35 +35 очень
душно
1002.5 989.3
00 16.07 штиль 0 10 км 5/1 600 м
[Cu hum Cs]
+25.7 +23.5 88 +35 +37 очень
душно
1003.8 990.6 +24.6
03 16.07 штиль 0 12 км 5/1 600 м
[Cu hum Ac trans Cs]
+31.4 +24.1 65 +43 +58 опасность
перегрева
1004.5 991.6
06 16.07 штиль 0 12 км 4/1 600 м
[Cu hum Cs]
+35.4 +23.2 49 +45 +70 опасность
перегрева
1002.4 989.7
09 16.07 СЗ 3 12 км 3/1 600 м
[Cb cap Cs]
+35.0 +23.6 52 +46 +52 опасность
перегрева
999.9 987.1
12 16.07 штиль 0 12 км 3/1 600 м
[Cu Sc Cs]
+33.2 +24.2 59 +45 +45 опасность
перегрева
999.7 986.9 +36.9
15 16.07 штиль 0 10 км 1/0
[Ac trans]
+29.6 +23.7 71 +41 +41 опасность
перегрева
1002.5 989.4
18 16.07 штиль 0 10 км 3/1 600 м
[Cu hum Ac trans]
+27.8 +24.2 81 +39 +39 очень
душно
1002.2 989.1
21 16.07 штиль 0 10 км 3/1 600 м
[Sc Ac trans Cs]
+26.9 +24.1 85 +37 +37 очень
душно
1001.8 988.7
00 17.07 штиль 0 12 км 3/0
[Cs]
+26.7 +24.5 88 +38 +40 очень
душно
1002.2 989.0 +25.5
03 17.07 штиль 0 12 км 3/3 600 м
[Cu hum]
+32.5 +24.7 64 +46 +61 опасность
перегрева
1003.2 990.3
06 17.07 Ю 2 12 км 3/3 600 м
[Cu med, cong]
+36.4 +24.6 51 +49 +64 опасность
перегрева
1001.2 988.5
09 17.07 Ю 2 12 км 6/4 600 м
[Cu Sc Ac lent Cs]
+37.5 +25.4 50 +51 +55 опасность
перегрева
998.7 986.1
12 17.07 штиль 0 12 км 8/3 600 м
[Sc Ac lent Cs]
+33.4 +24.3 59 +46 +46 опасность
перегрева
998.9 986.0 +38.0
15 17.07 штиль 0 10 км 8/3 600 м
[Sc Ac lent Cs]
+31.0 +24.6 69 +44 +44 опасность
перегрева
1002.0 989.0
18 17.07 штиль 0 10 км 8/3 600 м
[Sc Ac lent Cs]
+29.0 +24.3 76 +41 +41 опасность
перегрева
1002.1 989.1
21 17.07 штиль 0 10 км 3/3 600 м
[Sc]
+28.0 +24.4 81 +39 +39 очень
душно
1001.8 988.7
00 18.07 штиль 0 12 км 1/1 600 м
[Sc]
+26.6 +24.3 87 +37 +39 очень
душно
1002.2 989.1 +25.7
03 18.07 ЮЗ 2 12 км 1/1 600 м
[Cu hum]
+32.8 +24.2 61 +45 +59 опасность
перегрева
1002.4 989.5
06 18.07 Ю 2 12 км 5/3 600 м
[Cu med, cong Cs]
+36.4 +24.6 51 +49 +63 опасность
перегрева
1001.0 988.3
09 18.07 Ю 2 12 км 8/5 600 м
[Cu Sc Cs]
+36.5 +23.7 48 +47 +51 опасность
перегрева
999.2 986.5
12 18.07 штиль 0 12 км 8/3 600 м
[Sc Ac lent Cs]
+33.8 +23.1 54 +44 +44 опасность
перегрева
999.7 986.9 +37.5
15 18.07 штиль 0 10 км 3/1 600 м
[Sc Cs]
+30.5 +24.3 70 +43 +43 опасность
перегрева
1002.3 989.3
18 18.07 штиль 0 10 км 3/0
[Cs]
+29.1 +24.7 77 +41 +41 опасность
перегрева
1002.1 989.0
21 18.07 штиль 0 10 км ясно +28.0 +24.3 80 +39 +39 очень
душно
1001.5 988.4
00 19.07 штиль 0 12 км 3/0
[Cs]
+27.3 +24.4 84 +38 +40 очень
душно
1002.6 989.5 +26.2
03 19.07 штиль 0 12 км 3/1 600 м
[Cu med, cong Cs]
+33.0 +24.0 59 +45 +63 опасность
перегрева
1003.9 991.0
06 19.07 штиль 0 12 км 8/5 600 м
[Cu Sc Ac trans Cs]
+36.4 +24.4 50 +48 +59 опасность
перегрева
1002.3 989.6

 

Местоположение метеостанции Пхетчабун (Таиланд): широта 16.43 долгота 101.15 высота над уровнем моря 116 м.

В архиве по умолчанию представлена погода в Пхетчабуне за последнюю неделю. Архивные данные за месяц целиком и за предыдущие месяцы, начиная с января 2011 года, Вы можете получить, выбрав интересующий диапазон дат из раскрывающегося списка и нажав кнопку "Ввод!".


*Определитесь, кто Вы:
робот инопланетянин человек

Внимание! Время в таблицах - всемирное. Для получения местного времени необходимо прибавить поправку, которая равна 7 ч.

Смотрите также архив погоды в соседних городах и на ближайших метеорологических станциях:

Погода в Ломсаке (Таиланд) (39 км)
Погода в Вичан Бури (Таиланд) (89 км)
Погода в Пичит Агромете (Таиланд) (93 км)
Погода в Пхитсанулоке (Таиланд) (103 км)
Погода в Чайяпхуме (Таиланд) (117 км)
Погода в Лоей Агромете (Таиланд) (124 км)
Погода в Накхон Саван (Таиланд) (127 км)
Погода в Буа Чум (Таиланд) (129 км)
Погода в Лоэй (Таиланд) (129 км)
Погода в Такфа Агромете (Таиланд) (139 км)

Пояснения к столбцам:

Ветер - указаны скорость ветра в м/с - средняя за 10 мин, порывы в срок и между сроками (в фигурных скобках) и направление, откуда дует ветер: С - северный, СВ - северо-восточный, В - восточный, ЮВ - юго-восточный, Ю - южный, ЮЗ - юго-западный, З - западный, СЗ - северо-западный.
Видимость - горизонтальная дальность видимости в метрах или километрах. При видимости от 1 до 10 км при отсутствии осадков обычно наблюдается дымка, при ухудшении видимости до 1 км и менее - туман. В сухую погоду видимость может ухудшаться дымом, пылью или мглою.
Явления - указаны атмосферные явления, наблюдавшиеся в срок или в последний час перед сроком; фигурными скобками обозначены явления, наблюдавшиеся между сроками (за 1-3 часа до срока); квадратными скобками обозначены град или гололедные отложения с указанием их диаметра в мм.
Облачность - указаны через наклонную черту общая и нижняя облачность в баллах и высота нижней границы облаков в метрах; квадратными скобками обозначены формы облаков: Ci - перистые, Cs - перисто-слоистые, Cc - перисто-кучевые, Ac - высококучевые, As - высокослоистые, Sc - слоисто-кучевые, Ns - слоисто-дождевые, Cu - кучевые, Cb - кучево-дождевые. Подробнее классификацию облаков см. в Атласе облаков (PDF).
T - Температура воздуха - температура, измеренная на высоте 2 м над землей.
Td - Температура точки росы - температура, при понижении до которой содержащийся в воздухе водяной пар достигнет насыщения.
f - Относительная влажность воздуха - влажноcть воздуха, измеренная на высоте 2 м над землей.
Te - Эффективная температура - температура, которую ощущает одетый по сезону человек в тени. Характеристика душности погоды. При расчете учитывается влияние влажности воздуха и скорости ветра на теплоощущения человека.
Tes - Эффективная температура на солнце - температура, которую ощущает человек, с поправкой на солнечный нагрев. Характеристика знойности погоды. Зависит от высоты солнца над горизонтом, облачности и скорости ветра. Ночью, в пасмурную погоду, а также при ветре 12 м/с и более поправка равна нулю.
P - Атмосферное давление - приведенное к уровню моря атмосферное давление.
Po - Атмосферное давление - измеренное на уровне метеостанции атмосферное давление.
Tmin - Минимальная температура - минимум температуры воздуха на высоте 2 м над землей.
Tmax - Максимальная температура - максимум температуры воздуха на высоте 2 м над землей.
R - Количество осадков - Количество выпавших осадков за период времени, мм. При наведении курсора мыши на число - период времени, за который выпало указанное количество осадков.
R24 - Количество осадков - Количество выпавших осадков за 24 часа, мм.
S - Снежный покров - Высота снежного покрова, см. При наведении курсора мыши на число - состояние снежного покрова и степень покрытия местности в баллах.